Temperature
9 11 11 11 10 11 10 11 11 12 12 11 12 13 13 13 12 12 12 12 11 11 11 10 10 10 10 10 10 10 10 10 10 10 10 10 10 10 10 10 10 10 10 10
11 11 11 10 10 9 10 10 11 12 11 11 12 13 14 13 12 12 12 11 11 11 10 10 10 10 10 10 10 10 10 10 10 10 10 10 10 10 10 10 10 10 10 10
11 11 10 9 10 10 10 10 11 11 11 11 11 13 14 13 12 12 11 11 11 10 10 10 10 10 10 10 10 10 10 10 10 10 10 10 10 10 10 10 9 9 9 9
10 10 9 10 10 10 11 10 10 10 11 12 11 12 14 13 13 13 12 11 11 10 10 10 10 10 10 10 10 10 10 10 10 10 10 10 10 10 10 10 9 9 9 9
11 9 9 10 10 9 10 9 9 10 10 11 11 11 14 13 13 13 13 11 11 10 10 10 10 10 10 10 10 10 10 10 10 10 10 9 9 9 9 9 9 9 9 9
10 9 9 9 9 9 9 9 9 10 11 11 11 11 13 13 13 13 13 11 11 10 10 10 10 10 10 10 10 10 10 10 10 10 9 9 9 9 9 9 9 9 8 8
10 10 9 8 9 9 9 11 11 11 11 12 11 11 12 13 12 12 11 11 10 9 9 9 9 9 9 10 10 10 10 10 10 9 9 9 9 9 9 9 9 8 8 8
10 11 10 9 9 10 10 10 11 11 12 12 11 11 13 12 11 10 10 10 9 9 9 9 9 9 9 10 10 10 9 9 9 9 9 9 9 9 9 8 8 8 8 8
11 11 9 8 8 9 10 10 10 10 10 10 12 12 13 12 11 10 10 9 9 9 8 8 9 9 9 9 10 9 9 9 9 9 9 9 9 8 8 8 8 8 8 7
10 10 9 8 8 8 9 9 9 10 10 11 12 12 13 12 11 11 10 9 9 8 8 8 8 8 9 9 9 9 9 9 9 9 9 9 8 8 8 8 8 8 7 7
9 9 9 9 9 10 9 9 9 10 10 11 12 13 12 11 10 10 10 9 8 8 7 7 8 8 8 8 9 9 9 9 9 8 8 8 8 8 8 7 7 7 7 7
8 9 9 10 9 8 9 10 10 10 10 10 11 12 11 10 9 9 9 8 8 7 7 7 7 8 8 8 8 8 8 8 8 8 8 8 7 7 7 7 7 7 7 6
8 9 10 10 9 8 8 8 9 9 9 10 10 12 11 10 9 9 8 8 7 7 7 7 7 7 7 8 8 8 8 8 8 7 7 7 7 7 7 7 7 6 6 6
8 9 10 11 11 9 9 8 8 8 9 10 10 11 11 10 10 9 8 7 7 7 6 6 6 6 7 7 7 7 8 7 7 7 7 7 7 7 6 6 6 6 6 6
8 8 8 9 9 8 8 8 8 8 9 10 10 10 10 10 9 9 8 7 6 6 6 6 6 6 7 7 7 7 7 7 7 7 7 7 7 6 6 6 6 6 5 5
7 8 7 7 8 7 7 8 8 8 8 8 9 9 10 9 8 8 7 6 6 6 6 6 6 6 7 7 7 7 7 7 7 7 6 6 6 6 6 6 5 5 5 5
6 7 7 8 7 7 8 9 8 8 8 8 8 9 9 8 8 7 6 6 6 5 5 6 6 6 6 6 6 6 6 6 6 6 6 6 6 6 5 5 5 5 5 4
6 6 7 7 7 7 10 8 8 8 8 7 7 8 7 7 6 5 5 5 5 5 5 5 6 6 6 6 6 6 6 6 6 5 5 5 5 5 5 5 5 5 4 4
5 6 6 6 7 8 9 7 6 7 7 7 7 7 6 5 5 6 5 5 5 5 5 5 5 6 6 6 6 5 5 5 5 5 5 5 5 5 5 4 4 4 4 3
3 5 6 6 6 7 8 6 5 7 7 6 6 6 5 5 7 7 5 4 4 5 5 5 5 5 5 5 5 5 5 5 5 5 5 4 4 4 4 4 3 3 3 3
3 4 4 5 6 7 7 5 5 7 7 5 4 4 4 5 5 4 4 4 4 4 4 4 4 5 5 4 4 4 4 4 4 4 4 4 3 3 3 3 3 3 2 2
5 5 4 5 5 6 5 5 6 6 4 4 3 3 3 3 3 3 3 4 4 4 4 4 4 4 4 4 4 4 4 4 4 3 3 3 3 3 2 2 2 2 2 2
4 5 5 5 6 5 3 4 4 3 3 3 3 3 3 3 3 3 3 3 3 3 3 3 3 3 3 3 3 3 3 3 3 3 3 3 2 2 2 2 1 1 1 1
4 3 4 4 4 3 3 3 3 3 3 3 3 3 3 2 2 2 2 2 2 3 3 3 3 3 3 3 2 2 2 2 2 2 2 2 2 1 1 1 1 1 1 1
4 2 3 3 3 3 2 2 2 2 2 2 2 2 2 2 2 2 2 2 2 2 2 2 2 2 2 2 2 2 2 2 2 1 1 1 1 1 1 0 0 0 0 0
2 2 3 3 3 3 2 2 2 2 1 1 1 1 1 1 1 1 1 1 1 1 1 1 1 1 1 1 1 1 1 1 1 1 1 0 0 0 -0 -0 -0 -0 -0 -0
Wind_Speed
1 2 3 3 4 5 6 8 10 8 7 8 11 13 12 8 7 7 7 7 7 7 6 4 5 5 4 4 4 5 6 5 5 5 5 4 4 4 4 4 5 6 6 6
2 3 4 3 3 5 6 9 9 7 5 7 10 12 9 6 6 7 8 7 7 6 5 4 4 5 5 5 5 5 6 6 6 5 5 3 4 3 3 4 5 5 6 6
4 2 1 3 4 5 7 8 8 9 10 5 8 7 4 3 4 4 5 6 7 7 6 5 5 5 5 6 6 5 6 6 6 6 4 4 3 3 4 4 4 5 6 6
4 3 3 4 5 5 6 5 8 9 7 4 4 5 3 4 4 4 4 5 6 6 6 6 6 6 6 7 6 6 7 6 6 7 7 8 6 6 6 5 5 6 6 6
3 2 3 4 4 5 5 5 7 7 6 5 3 4 5 4 5 6 5 5 5 6 6 6 6 6 6 6 6 6 7 7 7 7 8 8 6 5 5 5 6 6 5 6
4 3 3 4 3 5 4 4 3 3 3 4 4 4 5 4 6 8 6 5 5 4 5 5 4 3 3 4 4 5 7 7 7 8 8 8 8 7 7 7 7 6 5 5
3 3 2 2 2 2 3 3 2 2 2 3 1 4 5 5 6 7 7 6 5 4 4 5 5 4 4 4 4 5 7 7 7 8 8 8 8 8 8 8 7 7 5 5
3 3 3 2 2 2 2 2 2 3 4 4 2 4 3 4 5 6 6 6 6 5 3 4 4 5 5 5 4 5 6 7 8 8 8 7 8 6 6 7 6 6 5 5
4 3 1 2 1 2 2 2 2 3 3 5 4 4 5 4 5 6 7 7 7 5 4 3 3 4 4 4 4 5 6 7 7 8 8 7 8 7 6 6 6 5 5 5
3 4 2 1 2 1 1 2 2 2 3 4 5 4 3 4 6 7 8 8 8 7 5 4 2 2 3 3 3 4 6 7 7 7 7 6 7 7 7 6 7 6 6 6
4 4 2 2 5 5 4 3 3 3 3 4 5 3 0 2 5 7 8 7 7 6 5 4 3 2 1 1 2 4 4 5 6 6 7 7 7 7 7 6 7 7 7 7
5 3 4 4 1 2 5 5 6 4 4 4 5 4 2 2 4 6 7 8 7 6 4 3 2 2 1 1 2 3 4 5 5 6 6 7 7 7 7 7 7 7 7 7
5 4 3 3 3 3 4 5 6 5 4 6 6 5 2 3 6 7 7 7 6 5 4 3 2 2 1 1 1 2 3 4 4 5 6 7 8 8 8 7 7 7 7 7
5 6 8 8 5 3 6 7 8 8 7 9 11 11 8 8 10 10 8 7 6 5 4 3 3 2 1 1 1 2 2 3 4 5 6 7 8 8 8 7 7 7 7 7
5 7 9 11 10 8 10 12 12 14 14 12 12 12 12 10 10 9 8 6 6 6 5 4 4 3 2 2 2 2 2 2 3 5 6 6 6 6 6 7 7 7 7 7
4 6 5 7 7 8 11 14 14 15 14 16 15 15 10 10 8 7 7 6 6 6 6 5 5 4 3 3 2 2 2 2 3 4 5 4 5 5 6 7 7 7 7 7
5 5 5 7 4 6 10 10 11 8 9 10 11 9 8 7 7 7 7 6 6 7 7 6 6 5 5 4 3 3 3 3 3 4 4 4 5 6 6 6 7 7 7 7
7 6 4 5 4 9 4 1 5 7 7 7 6 6 6 7 7 6 5 6 8 8 7 7 6 6 5 4 3 3 2 2 3 3 4 4 5 5 5 6 7 7 6 6
9 8 5 4 7 9 5 2 4 5 4 3 5 6 6 6 4 2 3 7 8 8 8 7 7 6 5 4 3 2 2 2 3 3 3 4 4 5 6 6 6 6 6 6
5 8 7 6 6 7 2 2 1 3 4 0 2 4 4 3 3 4 7 9 9 8 7 6 6 5 4 3 2 2 3 3 3 3 3 3 4 5 6 6 5 5 5 5
6 7 10 11 9 8 2 0 3 5 2 2 2 3 3 3 5 7 8 8 8 7 7 6 5 5 4 3 2 3 3 4 4 3 3 3 4 4 4 4 4 4 5 5
8 7 8 8 8 7 2 2 3 2 3 2 3 4 4 6 7 7 8 8 8 7 7 6 5 5 4 3 3 4 4 4 3 3 3 4 4 3 3 4 4 5 5 5
7 6 4 6 5 1 1 0 2 2 3 4 4 5 5 7 8 8 8 8 8 8 7 6 6 5 5 4 4 4 5 3 3 3 3 3 3 3 4 4 5 4 5 5
5 3 4 5 5 3 2 2 2 3 4 5 6 6 6 7 8 9 8 8 8 7 7 6 5 5 5 5 5 5 4 3 3 3 3 3 3 3 3 3 4 4 5 5
5 3 4 6 5 4 3 3 4 6 6 6 6 6 6 7 8 8 8 8 8 7 6 5 5 5 6 5 5 4 3 3 3 3 3 3 3 3 3 3 4 5 5 5
5 5 6 6 4 4 6 6 6 6 7 7 7 7 7 7 8 8 8 7 7 6 6 6 6 6 6 5 5 4 3 3 3 3 3 3 3 2 2 2 3 4 6 6
Wind_Direction
300 238 255 269 250 263 280 283 283 284 300 293 277 280 287 293 279 266 260 255 252 251 247 226 207 199 187 183 186 182 180 181 179 172 171 170 176 168 167 162 162 167 166 165
235 254 263 266 248 250 265 284 288 292 309 299 290 286 285 285 274 264 259 255 253 251 242 221 202 192 192 190 190 192 191 188 187 185 181 178 164 166 163 157 165 169 168 166
251 292 251 236 255 263 262 271 288 301 313 288 298 283 289 312 293 282 267 259 255 246 236 222 206 198 200 199 196 196 199 196 190 179 164 143 135 145 165 172 175 178 177 170
258 253 238 250 255 258 271 269 280 290 296 286 308 288 298 326 327 322 294 272 262 248 235 228 217 208 205 205 202 199 195 193 188 179 177 173 181 186 189 178 173 170 177 174
266 242 240 251 259 242 271 294 280 274 268 271 266 269 292 340 321 321 305 290 278 258 244 235 227 221 214 206 198 196 193 190 186 186 186 185 191 187 170 166 165 168 171 173
263 251 248 257 265 236 272 278 254 236 244 258 256 263 292 322 312 315 312 298 291 273 253 245 233 220 212 208 197 193 191 191 188 189 190 192 190 180 169 171 172 174 171 169
275 228 217 229 256 210 261 279 287 258 249 266 265 253 270 318 316 312 313 311 313 297 263 251 235 221 213 207 203 199 195 193 191 191 192 195 193 188 185 182 182 176 175 176
279 265 206 203 231 241 231 271 290 291 285 293 264 252 273 319 318 323 325 324 328 319 292 268 250 236 226 212 205 203 204 199 195 194 194 195 195 195 192 186 182 182 181 179
251 266 130 209 237 225 199 210 288 282 275 270 266 278 284 316 336 347 348 346 342 335 321 298 270 250 239 223 212 210 207 202 199 197 194 197 194 193 189 183 182 182 178 168
241 264 240 197 190 204 255 181 191 236 282 277 275 269 285 329 339 347 352 349 343 344 337 321 292 257 243 230 214 209 207 203 198 196 196 196 194 191 188 184 184 181 176 171
219 243 245 212 216 213 176 188 216 226 263 275 282 269 78 321 332 331 338 343 342 342 337 324 313 292 251 214 195 194 198 199 194 194 194 192 192 189 187 189 188 185 181 178
202 230 252 243 216 272 225 219 207 235 243 245 271 273 81 332 336 332 331 338 341 342 342 337 330 321 303 251 213 197 195 199 198 192 191 193 191 188 190 192 189 186 185 184
175 211 256 232 194 193 221 221 221 236 249 239 250 262 85 353 339 335 329 334 340 340 346 350 350 338 305 273 245 229 209 202 197 192 193 193 193 192 194 194 189 187 187 185
192 224 235 253 274 216 238 234 218 214 233 246 246 265 282 314 322 327 328 329 333 338 339 338 335 331 312 288 262 241 232 211 197 194 196 199 200 197 195 191 187 187 188 187
203 242 245 260 270 256 254 250 229 225 236 249 263 270 283 303 309 313 318 322 330 334 330 324 319 320 313 295 284 264 244 224 204 199 202 207 206 198 192 189 186 187 189 193
216 243 248 263 257 255 261 256 243 237 241 248 263 272 285 299 307 313 318 320 318 319 316 316 317 312 305 291 274 259 245 229 214 209 209 205 201 197 194 193 189 188 191 193
207 214 231 258 269 280 261 245 226 224 225 231 246 266 298 305 312 314 316 318 315 316 315 311 309 305 300 292 274 254 243 224 214 213 210 204 201 201 200 194 193 193 194 196
209 211 232 260 258 247 259 110 211 224 233 228 249 281 302 305 305 298 312 327 324 323 319 313 309 307 302 294 284 270 244 222 216 216 214 207 203 204 200 199 202 200 197 200
217 211 219 226 247 264 262 216 195 208 237 231 256 290 312 324 305 285 341 335 322 316 315 313 308 304 299 290 279 254 236 228 224 223 221 214 205 202 201 204 206 204 202 205
199 217 224 224 239 248 226 141 178 204 232 69 289 308 325 335 304 322 340 331 326 325 323 322 318 313 305 302 285 249 243 240 242 242 234 222 214 209 209 211 210 209 207 211
176 201 219 230 241 259 278 203 173 218 277 32 331 317 305 291 301 313 317 319 321 321 320 320 317 311 306 303 282 263 259 255 258 253 235 221 217 217 215 215 214 210 208 213
194 197 208 214 230 247 123 141 203 315 10 335 311 304 294 296 306 308 311 316 320 321 320 319 315 311 309 297 275 269 270 273 263 241 227 222 218 212 212 214 217 213 210 218
217 219 215 214 235 356 106 181 345 345 317 313 305 301 293 296 302 307 307 310 314 315 316 314 309 308 306 294 276 269 279 282 258 239 233 225 216 218 216 215 216 215 215 221
231 238 236 250 260 280 295 310 313 315 309 306 301 298 292 291 296 299 300 302 307 310 312 311 306 303 303 299 288 280 281 265 240 230 230 226 218 220 223 223 218 218 219 223
250 207 233 255 274 299 296 306 313 316 312 308 308 302 294 294 295 296 298 299 301 304 305 302 296 295 297 299 294 293 281 253 236 231 226 224 222 220 225 231 232 232 235 236
236 231 238 253 256 268 281 295 308 309 306 303 303 303 302 296 294 296 294 295 296 297 300 298 297 297 299 299 298 296 282 250 232 228 226 224 223 225 229 239 262 254 249 254
Height
1527 1525 1522 1522 1523 1522 1521 1519 1514 1510 1510 1510 1502 1497 1493 1494 1493 1492 1491 1491 1491 1491 1492 1492 1492 1492 1492 1493 1494 1495 1495 1497 1498 1500 1502 1504 1506 1508 1510 1512 1514 1516 1517 1519
1525 1523 1523 1524 1524 1523 1521 1518 1512 1509 1509 1508 1501 1494 1490 1491 1490 1489 1488 1488 1489 1489 1489 1489 1489 1490 1490 1490 1491 1492 1493 1495 1496 1498 1500 1502 1504 1506 1508 1510 1512 1514 1516 1517
1522 1523 1523 1523 1522 1520 1517 1516 1513 1511 1508 1505 1502 1490 1486 1487 1488 1487 1487 1487 1487 1487 1487 1487 1487 1487 1488 1488 1489 1490 1491 1493 1494 1496 1498 1500 1502 1504 1506 1508 1510 1512 1514 1515
1522 1523 1523 1521 1519 1519 1514 1515 1515 1513 1509 1502 1504 1494 1483 1484 1484 1484 1484 1484 1484 1484 1485 1485 1485 1485 1486 1487 1488 1488 1489 1491 1492 1493 1495 1497 1499 1501 1503 1505 1508 1510 1511 1512
1520 1522 1521 1519 1518 1518 1514 1515 1514 1512 1508 1504 1501 1499 1484 1484 1483 1481 1482 1482 1482 1482 1482 1482 1482 1483 1483 1484 1485 1485 1487 1488 1489 1491 1493 1495 1498 1499 1501 1503 1505 1507 1508 1510
1521 1522 1521 1518 1518 1518 1516 1515 1512 1510 1506 1502 1499 1498 1486 1482 1482 1481 1480 1480 1480 1480 1479 1479 1480 1480 1481 1481 1481 1483 1484 1485 1487 1489 1490 1493 1495 1497 1499 1500 1502 1504 1505 1507
1517 1518 1519 1519 1516 1515 1515 1509 1505 1503 1501 1494 1499 1497 1487 1482 1483 1482 1481 1479 1478 1478 1477 1477 1477 1477 1477 1478 1479 1480 1481 1483 1484 1486 1488 1490 1492 1495 1496 1498 1500 1502 1503 1504
1516 1514 1515 1516 1515 1513 1513 1510 1509 1505 1498 1492 1497 1492 1482 1484 1484 1482 1481 1479 1477 1476 1475 1475 1475 1475 1475 1475 1476 1477 1479 1480 1482 1484 1486 1488 1490 1492 1494 1496 1498 1499 1501 1502
1513 1511 1515 1515 1515 1514 1511 1511 1512 1509 1506 1502 1488 1485 1481 1481 1481 1481 1479 1478 1476 1475 1474 1473 1473 1473 1473 1473 1474 1475 1477 1478 1480 1481 1483 1486 1488 1489 1491 1493 1495 1497 1498 1499
1514 1513 1512 1515 1516 1515 1513 1511 1511 1509 1504 1495 1486 1484 1480 1479 1480 1480 1479 1477 1476 1474 1472 1472 1471 1471 1472 1472 1472 1474 1475 1476 1478 1480 1481 1483 1485 1487 1489 1491 1492 1494 1495 1497
1516 1513 1511 1512 1510 1507 1512 1512 1508 1506 1504 1498 1488 1481 1480 1481 1481 1480 1479 1478 1476 1474 1472 1471 1470 1470 1470 1470 1471 1472 1473 1474 1476 1477 1479 1480 1482 1484 1486 1488 1489 1491 1492 1494
1514 1512 1508 1506 1509 1510 1507 1505 1505 1503 1502 1500 1493 1484 1481 1482 1482 1481 1479 1478 1476 1474 1472 1470 1469 1468 1468 1469 1469 1470 1470 1472 1473 1474 1476 1477 1479 1481 1483 1485 1487 1488 1489 1491
1513 1511 1506 1502 1509 1510 1507 1505 1505 1503 1501 1498 1493 1482 1481 1481 1481 1480 1479 1477 1475 1473 1472 1470 1469 1468 1468 1467 1468 1468 1468 1469 1470 1472 1473 1474 1476 1478 1480 1482 1483 1485 1486 1487
1510 1506 1503 1497 1492 1497 1500 1501 1503 1503 1499 1491 1486 1479 1478 1479 1479 1479 1478 1476 1475 1473 1471 1470 1468 1467 1466 1466 1466 1466 1467 1467 1468 1469 1470 1471 1473 1475 1476 1478 1480 1481 1483 1484
1508 1503 1500 1498 1497 1498 1496 1495 1497 1497 1491 1487 1480 1480 1477 1479 1480 1479 1477 1475 1473 1471 1470 1468 1467 1466 1465 1465 1465 1465 1465 1465 1465 1466 1467 1469 1470 1471 1473 1475 1476 1477 1479 1480
1505 1502 1501 1498 1496 1496 1494 1489 1490 1490 1489 1486 1483 1480 1478 1479 1479 1478 1476 1474 1472 1470 1468 1467 1466 1465 1464 1463 1463 1463 1463 1463 1463 1464 1465 1466 1467 1468 1469 1471 1472 1474 1475 1476
1503 1502 1500 1493 1494 1493 1484 1479 1482 1483 1482 1481 1479 1477 1478 1478 1477 1476 1474 1473 1471 1469 1467 1465 1464 1463 1462 1461 1461 1461 1461 1461 1461 1462 1462 1463 1464 1465 1466 1467 1469 1470 1471 1472
1499 1499 1497 1494 1493 1489 1474 1478 1478 1478 1478 1479 1478 1478 1478 1477 1476 1474 1473 1472 1469 1468 1466 1464 1462 1461 1460 1459 1459 1459 1459 1459 1459 1459 1460 1460 1461 1462 1463 1464 1465 1466 1467 1468
1496 1495 1495 1493 1486 1475 1474 1477 1478 1477 1476 1477 1477 1476 1477 1476 1474 1472 1471 1470 1468 1466 1464 1462 1460 1459 1458 1457 1457 1456 1456 1456 1456 1456 1457 1457 1458 1458 1459 1460 1461 1462 1463 1463
1495 1494 1492 1489 1485 1475 1470 1475 1476 1476 1473 1475 1476 1475 1475 1475 1471 1470 1470 1468 1466 1464 1462 1460 1458 1457 1456 1455 1454 1453 1453 1453 1453 1453 1454 1454 1454 1455 1455 1456 1457 1457 1458 1459
1491 1492 1489 1485 1481 1470 1472 1474 1476 1474 1470 1475 1475 1475 1475 1474 1473 1472 1468 1466 1464 1462 1460 1458 1456 1455 1454 1452 1452 1451 1451 1450 1451 1451 1451 1451 1451 1451 1452 1452 1453 1453 1454 1454
1479 1481 1482 1480 1478 1474 1473 1474 1474 1473 1474 1474 1474 1473 1473 1472 1470 1468 1466 1464 1461 1459 1458 1456 1454 1453 1451 1450 1449 1448 1448 1448 1448 1447 1447 1447 1447 1448 1448 1448 1448 1449 1449 1450
1476 1474 1472 1473 1472 1472 1472 1473 1474 1474 1473 1473 1472 1471 1470 1469 1467 1465 1463 1461 1459 1457 1455 1454 1452 1450 1449 1448 1447 1446 1445 1445 1444 1444 1444 1444 1444 1444 1444 1444 1444 1445 1445 1445
1474 1475 1474 1473 1471 1472 1472 1472 1472 1472 1472 1471 1470 1469 1467 1466 1464 1462 1460 1458 1456 1454 1453 1451 1449 1448 1446 1445 1444 1443 1442 1442 1441 1440 1440 1440 1440 1440 1440 1440 1440 1441 1441 1441
1470 1473 1472 1470 1470 1470 1470 1470 1470 1469 1469 1468 1467 1465 1464 1462 1460 1459 1457 1455 1453 1452 1450 1448 1447 1445 1443 1442 1441 1440 1439 1438 1437 1437 1436 1436 1436 1436 1436 1436 1437 1437 1437 1437
1469 1470 1469 1466 1468 1469 1468 1468 1467 1466 1465 1464 1463 1461 1460 1459 1457 1455 1453 1451 1450 1448 1447 1445 1444 1442 1440 1439 1438 1437 1436 1435 1434 1433 1433 1433 1432 1432 1432 1432 1432 1432 1432 1432